KB9TWL Weather Reports


time (UTC)temp
C
wind
direction
speed
KPH
gust
KPH
rain 1hr
cm
rain 24hr
cm
rain mn
cm
humidity
%
barometer
mb
20260505094602 7 288 3.2 12.9 0.00 0.00 0.00 43 1007.9
20260505093027 8 320 3.2 14.5 0.00 0.00 0.00 43 1007.8
20260505091505 7 308 4.8 16.1 0.00 0.00 0.00 46 1007.8
20260505090034 7 313 1.6 6.4 0.00 0.00 0.00 51 1008.1
20260505084524 8 324 4.8 12.9 0.00 0.00 0.00 49 1007.5
20260505083101 8 314 3.2 9.7 0.00 0.00 0.00 48 1006.8
20260505081522 8 338 3.2 12.9 0.00 0.00 0.00 48 1006.7
20260505080059 8 321 6.4 16.1 0.00 0.00 0.00 47 1006.3
20260505074514 8 360 6.4 16.1 0.00 0.00 0.00 47 1005.8
20260505073040 9 334 4.8 17.7 0.00 0.00 0.00 48 1005.5
20260505071602 10 317 4.8 12.9 0.00 0.00 0.00 45 1005.6
20260505070008 10 296 3.2 14.5 0.00 0.00 0.00 44 1005.6
20260505064533 10 360 9.7 22.5 0.00 0.00 0.00 44 1005.2
20260505063057 11 327 9.7 32.2 0.00 0.00 0.00 45 1005.1
20260505061552 11 336 6.4 22.5 0.00 0.00 0.00 46 1004.8
20260505060059 11 334 6.4 16.1 0.00 0.00 0.00 46 1004.7
20260505054542 12 329 8.0 20.9 0.00 0.00 0.00 46 1004.4
20260505053014 12 331 4.8 16.1 0.00 0.00 0.00 44 1004.5
20260505051547 13 240 3.2 16.1 0.00 0.00 0.00 42 1004.0
20260505041552 14 360 6.4 16.1 0.00 0.00 0.00 38 1003.0
20260505040104 15 360 4.8 19.3 0.00 0.00 0.00 36 1002.8
20260505034545 15 360 4.8 19.3 0.00 0.00 0.00 35 1003.0
20260505033011 16 290 4.8 16.1 0.00 0.00 0.00 34 1003.0
20260505031556 16 250 4.8 16.1 0.00 0.00 0.00 34 1002.8
20260505030017 16 247 6.4 17.7 0.00 0.00 0.00 35 1002.3
20260505024558 16 360 3.2 9.7 0.00 0.00 0.00 36 1002.0
20260505023036 17 281 4.8 20.9 0.00 0.00 0.00 34 1001.3
20260505021520 17 226 4.8 20.9 0.00 0.00 0.00 33 1001.6
20260505020005 17 264 8.0 24.1 0.00 0.00 0.00 33 1001.2
20260505014529 18 360 9.7 33.8 0.00 0.00 0.00 33 1000.7
20260505013103 18 360 9.7 24.1 0.00 0.00 0.00 33 1000.0
20260505011502 20 360 8.0 22.5 0.00 0.00 0.00 35 999.2
20260505010058 20 321 8.0 20.9 0.00 0.00 0.00 35 999.0
20260505004602 21 265 6.4 30.6 0.00 0.00 0.00 32 998.7
20260505003044 22 240 9.7 30.6 0.00 0.00 0.00 35 997.9
20260505001508 22 243 8.0 24.1 0.00 0.00 0.00 36 997.5
20260505000106 23 256 11.3 30.6 0.00 0.00 0.00 35 997.4
20260504234519 25 244 11.3 25.7 0.00 0.00 0.00 33 997.2
20260504233105 25 246 12.9 29.0 0.00 0.00 0.00 29 996.9
20260504231524 25 255 8.0 24.1 0.00 0.00 0.00 30 997.0
20260504230053 25 229 4.8 12.9 0.00 0.00 0.00 34 997.1
20260504224518 25 194 8.0 20.9 0.00 0.00 0.00 33 997.3
20260504223102 26 209 8.0 25.7 0.00 0.00 0.00 30 997.3
20260504221528 25 246 8.0 16.1 0.00 0.00 0.00 34 997.3
20260504214536 25 271 8.0 16.1 0.00 0.00 0.00 31 997.3
20260504213112 26 175 6.4 17.7 0.00 0.00 0.00 33 997.4
20260504211543 25 218 8.0 24.1 0.00 0.00 0.00 32 997.6
20260504210004 25 224 6.4 22.5 0.00 0.00 0.00 32 997.7
20260504204555 26 223 12.9 29.0 0.00 0.00 0.00 30 997.8
20260504203022 26 214 14.5 38.6 0.00 0.00 0.00 29 998.0
20260504201544 26 257 8.0 29.0 0.00 0.00 0.00 30 998.2
20260504200049 25 286 16.1 35.4 0.00 0.00 0.00 30 998.3
20260504194508 25 236 14.5 37.0 0.00 0.00 0.00 30 999.0
20260504193102 25 217 6.4 24.1 0.00 0.00 0.00 31 998.8
20260504191528 25 181 8.0 45.1 0.00 0.00 0.00 31 998.9
20260504190010 24 243 8.0 20.9 0.00 0.00 0.00 32 999.2
20260504184545 23 200 3.2 22.5 0.00 0.00 0.00 34 999.2
20260504183023 23 186 8.0 19.3 0.00 0.00 0.00 33 999.4
20260504181603 23 233 6.4 14.5 0.00 0.00 0.00 34 999.5
20260504180024 23 218 6.4 19.3 0.00 0.00 0.00 33 999.3
20260504174506 23 148 6.4 20.9 0.00 0.00 0.00 33 999.5
20260504173031 23 216 8.0 17.7 0.00 0.00 0.00 33 999.8
20260504171509 23 217 8.0 19.3 0.00 0.00 0.00 32 999.9